Tillbaka till svenska Fidonet
English   Information   Debug  
FILM   0/18
FNEWS_PUBLISH   4881
FN_SYSOP   42085
FN_SYSOP_OLD1   71952
FTP_FIDO   0/2
FTSC_PUBLIC   0/13950
FUNNY   0/4886
GENEALOGY.EUR   0/71
GET_INFO   105
GOLDED   0/408
HAM   4131/16617
HOLYSMOKE   0/6791
HOT_SITES   0/1
HTMLEDIT   0/71
HUB203   466
HUB_100   264
HUB_400   39
HUMOR   0/29
IC   0/2851
INTERNET   0/424
INTERUSER   0/3
IP_CONNECT   719
JAMNNTPD   0/233
JAMTLAND   0/47
KATTY_KORNER   0/41
LAN   0/16
LINUX-USER   0/19
LINUXHELP   0/1155
LINUX   0/22287
LINUX_BBS   0/957
mail   18.68
mail_fore_ok   249
MENSA   0/341
MODERATOR   0/102
MONTE   0/992
MOSCOW_OKLAHOMA   0/1245
MUFFIN   0/783
MUSIC   0/321
N203_STAT   938
N203_SYSCHAT   313
NET203   321
NET204   69
NET_DEV   0/10
NORD.ADMIN   0/101
NORD.CHAT   0/2572
NORD.FIDONET   189
NORD.HARDWARE   0/28
NORD.KULTUR   0/114
NORD.PROG   0/32
NORD.SOFTWARE   0/88
NORD.TEKNIK   0/58
NORD   0/453
OCCULT_CHAT   0/93
OS2BBS   0/787
OS2DOSBBS   0/580
OS2HW   0/42
OS2INET   0/37
OS2LAN   0/134
OS2PROG   0/36
OS2REXX   0/113
OS2USER-L   207
OS2   0/4829
OSDEBATE   5699/18996
PASCAL   0/490
PERL   0/457
PHP   0/45
POINTS   0/405
POLITICS   0/29554
POL_INC   0/14731
PSION   103
R20_ADMIN   1133
R20_AMATORRADIO   0/2
R20_BEST_OF_FIDONET   16
R20_CHAT   0/896
R20_DEPP   0/3
R20_DEV   400
R20_ECHO2   1789
R20_ECHOPRES   0/35
R20_ESTAT   0/719
R20_FIDONETPROG...
...RAM.MYPOINT
  0/2
R20_FIDONETPROGRAM   0/22
R20_FIDONET   0/248
R20_FILEFIND   0/24
R20_FILEFOUND   0/22
R20_HIFI   0/3
R20_INFO2   3681
R20_INTERNET   0/12940
R20_INTRESSE   0/60
R20_INTR_KOM   0/99
R20_KANDIDAT.CHAT   42
R20_KANDIDAT   28
R20_KOM_DEV   112
R20_KONTROLL   0/13360
R20_KORSET   0/18
R20_LOKALTRAFIK   0/24
R20_MODERATOR   0/1852
R20_NC   76
R20_NET200   245
R20_NETWORK.OTH...
...ERNETS
  0/13
R20_OPERATIVSYS...
...TEM.LINUX
  0/44
R20_PROGRAMVAROR   0/1
R20_REC2NEC   534
R20_SFOSM   0/341
R20_SF   0/108
R20_SPRAK.ENGLISH   0/1
R20_SQUISH   107
R20_TEST   2
R20_WORST_OF_FIDONET   20
RAR   0/9
RA_MULTI   106
RA_UTIL   0/162
REGCON.EUR   0/2067
REGCON   0/13
SCIENCE   0/1206
SF   0/239
SHAREWARE_SUPPORT   0/5146
SHAREWRE   0/14
SIMPSONS   0/169
STATS_OLD1   0/2539.065
STATS_OLD2   0/2530
STATS_OLD3   0/2395.095
STATS_OLD4   0/1692.25
SURVIVOR   0/495
SYSOPS_CORNER   0/3
SYSOP   0/84
TAGLINES   0/112
TEAMOS2   0/4530
TECH   0/2617
TEST.444   0/105
TRAPDOOR   0/19
TREK   0/755
TUB   0/290
UFO   0/40
UNIX   0/1316
USA_EURLINK   0/102
USR_MODEMS   0/1
VATICAN   0/2740
VIETNAM_VETS   0/14
VIRUS   0/378
VIRUS_INFO   0/201
VISUAL_BASIC   0/473
WHITEHOUSE   0/5187
WIN2000   0/101
WIN32   0/30
WIN95   0/4291
WIN95_OLD1   0/70272
WINDOWS   0/1517
WWB_SYSOP   0/419
WWB_TECH   0/810
ZCC-PUBLIC   0/1
ZEC   4

 
4DOS   0/134
ABORTION   0/7
ALASKA_CHAT   0/506
ALLFIX_FILE   0/1313
ALLFIX_FILE_OLD1   0/7997
ALT_DOS   0/152
AMATEUR_RADIO   0/1039
AMIGASALE   0/14
AMIGA   0/331
AMIGA_INT   0/1
AMIGA_PROG   0/20
AMIGA_SYSOP   0/26
ANIME   0/15
ARGUS   0/924
ASCII_ART   0/340
ASIAN_LINK   0/651
ASTRONOMY   0/417
AUDIO   0/92
AUTOMOBILE_RACING   0/105
BABYLON5   0/17862
BAG   135
BATPOWER   0/361
BBBS.ENGLISH   0/382
BBSLAW   0/109
BBS_ADS   0/5290
BBS_INTERNET   0/507
BIBLE   0/3563
BINKD   0/1119
BINKLEY   0/215
BLUEWAVE   0/2173
CABLE_MODEMS   0/25
CBM   0/46
CDRECORD   0/66
CDROM   0/20
CLASSIC_COMPUTER   0/378
COMICS   0/15
CONSPRCY   0/899
COOKING   41026
COOKING_OLD1   0/24719
COOKING_OLD2   0/40862
COOKING_OLD3   0/37489
COOKING_OLD4   0/35496
COOKING_OLD5   9370
C_ECHO   0/189
C_PLUSPLUS   0/31
DIRTY_DOZEN   0/201
DOORGAMES   0/2253
DOS_INTERNET   0/196
duplikat   6102
ECHOLIST   0/18295
EC_SUPPORT   0/318
ELECTRONICS   0/359
ELEKTRONIK.GER   1534
ENET.LINGUISTIC   0/13
ENET.POLITICS   0/4
ENET.SOFT   0/11701
ENET.SYSOP   34256
ENET.TALKS   0/32
ENGLISH_TUTOR   0/2000
EVOLUTION   0/1335
FDECHO   0/217
FDN_ANNOUNCE   0/7068
FIDONEWS   24978
FIDONEWS_OLD1   0/49742
FIDONEWS_OLD2   0/35949
FIDONEWS_OLD3   0/30874
FIDONEWS_OLD4   0/37224
FIDO_SYSOP   12920
FIDO_UTIL   0/180
FILEFIND   0/209
FILEGATE   0/212
Möte HAM, 16617 texter
 lista första sista föregående nästa
Text 3993, 883 rader
Skriven 2010-09-19 19:00:21 av Amsat List (1:323/120.0)
Ärende: [keps]  orb10259.amsa
=============================
[keps]  orb10259.amsa

Return-Path: <keps-bounces@amsat.org>
X-Rcpt: craig.healy@chowda.com
X-UIDL: 1284934168.38084

SB KEPS @ AMSAT  $ORB10259.O
Orbital Elements  10259.OSCAR

HR AMSAT ORBITAL ELEMENTS FOR OSCAR SATELLITES
FROM WA5QGD FORT WORTH,TX September 16, 2010
Send Subscribe/unsubscribe to KEPS at
http://www.amsat.org/mailman/listinfo/keps
BID: ORB10259.O
TO ALL RADIO AMATEURS BT

Satellite: AO-07
Catalog number: 07530
Epoch time:      10258.62315395
Element set:    0881
Inclination:      101.4013 deg
RA of node:       270.9793 deg
Eccentricity:    0.0012095
Arg of perigee:   096.4317 deg
Mean anomaly:     263.8130 deg
Mean motion:   12.53579594 rev/day
Decay rate:       -2.7e-07 rev/day^2
Epoch rev:           63978
Checksum:              310

Satellite: FO-29
Catalog number: 24278
Epoch time:      10258.91649268
Element set:    0401
Inclination:      098.5156 deg
RA of node:       075.5171 deg
Eccentricity:    0.0349805
Arg of perigee:   248.4411 deg
Mean anomaly:     107.9123 deg
Mean motion:   13.52952926 rev/day
Decay rate:        6.5e-07 rev/day^2
Epoch rev:           69537
Checksum:              332

Satellite: SO-33
Catalog number: 25509
Epoch time:      10258.63155429
Element set:    0796
Inclination:      031.4362 deg
RA of node:       357.0458 deg
Eccentricity:    0.0353359
Arg of perigee:   000.6505 deg
Mean anomaly:     359.4548 deg
Mean motion:   14.28327698 rev/day
Decay rate:        6.3e-07 rev/day^2
Epoch rev:           62099
Checksum:              329

Satellite: RS-22
Catalog number: 27939
Epoch time:      10259.67565767
Element set:     550
Inclination:      097.8784 deg
RA of node:       121.2185 deg
Eccentricity:    0.0014337
Arg of perigee:   127.2456 deg
Mean anomaly:     233.0057 deg
Mean motion:   14.63451434 rev/day
Decay rate:        1.8e-07 rev/day^2
Epoch rev:           37233
Checksum:              311

Satellite: VO-52
Catalog number: 28650
Epoch time:      10259.29573543
Element set:     598
Inclination:      097.6811 deg
RA of node:       309.1308 deg
Eccentricity:    0.0026838
Arg of perigee:   341.2433 deg
Mean anomaly:     018.7863 deg
Mean motion:   14.81805035 rev/day
Decay rate:        8.7e-07 rev/day^2
Epoch rev:           29018
Checksum:              322

Satellite: SO-67
Catalog number: 35870
Epoch time:      10259.89380163
Element set:     112
Inclination:      097.3221 deg
RA of node:       306.5607 deg
Eccentricity:    0.0004149
Arg of perigee:   119.1579 deg
Mean anomaly:     343.9559 deg
Mean motion:   15.21048720 rev/day
Decay rate:       6.34e-06 rev/day^2
Epoch rev:            5539
Checksum:              310

Satellite: HO-68
Catalog number: 36122
Epoch time:      10259.76193637
Element set:     678
Inclination:      100.4600 deg
RA of node:       319.2254 deg
Eccentricity:    0.0007765
Arg of perigee:   126.8836 deg
Mean anomaly:     233.2992 deg
Mean motion:   13.16281749 rev/day
Decay rate:       -4.5e-07 rev/day^2
Epoch rev:            3626
Checksum:              314

/EX
SB KEPS @ AMSAT  $ORB10259.D
Orbital Elements  10259.MICROS

HR AMSAT ORBITAL ELEMENTS FOR THE MICROSATS
FROM WA5QGD FORT WORTH,TX September 16, 2010
Send Subscribe/unsubscribe to KEPS at
http://www.amsat.org/mailman/listinfo/keps
BID: ORB10259.D
TO ALL RADIO AMATEURS BT

Satellite: UO-11
Catalog number: 14781
Epoch time:      10259.30491198
Element set:     340
Inclination:      098.0441 deg
RA of node:       311.2749 deg
Eccentricity:    0.0008361
Arg of perigee:   309.7917 deg
Mean anomaly:     050.2620 deg
Mean motion:   14.79832796 rev/day
Decay rate:       -5.5e-07 rev/day^2
Epoch rev:           42528
Checksum:              303

Satellite: AO-16
Catalog number: 20439
Epoch time:      10259.38106007
Element set:     995
Inclination:      098.3421 deg
RA of node:       213.7421 deg
Eccentricity:    0.0009981
Arg of perigee:   255.5278 deg
Mean anomaly:     104.4805 deg
Mean motion:   14.31873671 rev/day
Decay rate:        2.0e-08 rev/day^2
Epoch rev:            7843
Checksum:              297

Satellite: LO-19
Catalog number: 20442
Epoch time:      10259.43403797
Element set:     904
Inclination:      098.3045 deg
RA of node:       219.2280 deg
Eccentricity:    0.0010960
Arg of perigee:   249.5354 deg
Mean anomaly:     110.4660 deg
Mean motion:   14.32103381 rev/day
Decay rate:       -3.8e-07 rev/day^2
Epoch rev:            7861
Checksum:              279

Satellite: AO-27
Catalog number: 22825
Epoch time:      10259.78862082
Element set:     627
Inclination:      098.4935 deg
RA of node:       205.4031 deg
Eccentricity:    0.0008493
Arg of perigee:   005.9303 deg
Mean anomaly:     354.1975 deg
Mean motion:   14.29308533 rev/day
Decay rate:       1.24e-06 rev/day^2
Epoch rev:           88513
Checksum:              312

Satellite: IO-26
Catalog number: 22826
Epoch time:      10258.71779011
Element set:    0367
Inclination:      098.4879 deg
RA of node:       204.9270 deg
Eccentricity:    0.0009047
Arg of perigee:   004.3468 deg
Mean anomaly:     355.7793 deg
Mean motion:   14.29565060 rev/day
Decay rate:        2.7e-07 rev/day^2
Epoch rev:           88509
Checksum:              334

Satellite: GO-32
Catalog number: 25397
Epoch time:      10259.77898044
Element set:     285
Inclination:      098.3156 deg
RA of node:       262.1974 deg
Eccentricity:    0.0001615
Arg of perigee:   034.8754 deg
Mean anomaly:     325.2512 deg
Mean motion:   14.23184172 rev/day
Decay rate:      -1.18e-06 rev/day^2
Epoch rev:           63307
Checksum:              310

